QPF
0.02 0.03 0.05 0.05 0.04 0.03 0.03 0.06 0.07 0.04 0.01 0.01 0.03 0.04 0.02 0.02 0.01 0.04 0.04 0.04 0.05 0.02 0.03 0.03 0.02 0.01 0.00 0.00 0.00 0.00 0.00 0.00 0.00 0.00 0.00 0.00 0.00 0.00 0.00 0.00 0.00 0.00 0.00 0.00
0.02 0.03 0.04 0.04 0.04 0.04 0.04 0.07 0.07 0.04 0.01 0.02 0.03 0.04 0.02 0.01 0.01 0.01 0.02 0.02 0.02 0.01 0.02 0.03 0.01 0.01 0.00 0.00 0.00 0.00 0.00 0.00 0.00 0.00 0.00 0.00 0.00 0.00 0.00 0.00 0.00 0.00 0.00 0.00
0.02 0.02 0.02 0.02 0.05 0.06 0.06 0.07 0.06 0.05 0.04 0.02 0.04 0.05 0.04 0.02 0.00 0.01 0.01 0.01 0.01 0.01 0.01 0.02 0.01 0.01 0.00 0.00 0.00 0.00 0.00 0.00 0.00 0.00 0.00 0.00 0.00 0.00 0.00 0.00 0.00 0.00 0.00 0.00
0.01 0.01 0.01 0.02 0.04 0.05 0.08 0.06 0.05 0.05 0.07 0.06 0.05 0.09 0.05 0.02 0.01 0.01 0.01 0.01 0.01 0.01 0.00 0.01 0.01 0.00 0.00 0.00 0.00 0.00 0.00 0.00 0.00 0.00 0.00 0.00 0.00 0.00 0.00 0.00 0.00 0.00 0.00 0.00
0.02 0.01 0.01 0.02 0.04 0.04 0.06 0.05 0.04 0.04 0.06 0.06 0.03 0.06 0.05 0.01 0.02 0.01 0.01 0.01 0.01 0.01 0.00 0.00 0.00 0.00 0.00 0.00 0.00 0.00 0.00 0.00 0.00 0.00 0.00 0.00 0.00 0.00 0.00 0.00 0.00 0.00 0.00 0.00
0.01 0.01 0.01 0.02 0.02 0.03 0.03 0.04 0.05 0.05 0.08 0.09 0.03 0.04 0.03 0.01 0.00 0.00 0.00 0.00 0.00 0.00 0.00 0.00 0.00 0.00 0.00 0.00 0.00 0.00 0.00 0.00 0.00 0.00 0.00 0.00 0.00 0.00 0.00 0.00 0.00 0.00 0.00 0.00
0.02 0.01 0.01 0.01 0.03 0.04 0.04 0.08 0.14 0.14 0.12 0.09 0.02 0.03 0.02 0.00 0.00 0.00 0.00 0.00 0.00 0.00 0.00 0.00 0.00 0.00 0.00 0.00 0.00 0.00 0.00 0.00 0.00 0.00 0.00 0.00 0.00 0.00 0.00 0.00 0.00 0.00 0.00 0.00
0.06 0.05 0.02 0.02 0.03 0.05 0.04 0.05 0.12 0.14 0.10 0.06 0.02 0.02 0.01 0.00 0.00 0.00 0.00 0.00 0.01 0.01 0.00 0.00 0.00 0.00 0.00 0.00 0.00 0.00 0.00 0.00 0.00 0.00 0.00 0.00 0.00 0.00 0.00 0.00 0.00 0.00 0.00 0.00
0.06 0.06 0.02 0.01 0.01 0.02 0.04 0.04 0.05 0.09 0.08 0.08 0.03 0.01 0.00 0.00 0.00 0.00 0.00 0.00 0.01 0.01 0.00 0.00 0.00 0.00 0.00 0.00 0.00 0.00 0.00 0.00 0.00 0.00 0.00 0.00 0.00 0.00 0.00 0.00 0.00 0.00 0.00 0.00
0.03 0.06 0.03 0.02 0.02 0.02 0.02 0.02 0.04 0.09 0.12 0.10 0.04 0.01 0.00 0.00 0.00 0.00 0.00 0.00 0.00 0.00 0.00 0.00 0.00 0.00 0.00 0.00 0.00 0.00 0.00 0.00 0.00 0.00 0.00 0.00 0.00 0.00 0.00 0.00 0.00 0.00 0.00 0.00
0.01 0.05 0.05 0.03 0.03 0.03 0.02 0.02 0.04 0.08 0.09 0.11 0.08 0.03 0.00 0.00 0.00 0.00 0.00 0.00 0.00 0.00 0.00 0.00 0.00 0.00 0.00 0.00 0.00 0.00 0.00 0.00 0.00 0.00 0.00 0.00 0.00 0.00 0.00 0.00 0.00 0.00 0.00 0.00
0.01 0.05 0.07 0.04 0.01 0.01 0.01 0.01 0.03 0.07 0.07 0.07 0.09 0.04 0.01 0.00 0.00 0.00 0.00 0.00 0.00 0.00 0.00 0.00 0.00 0.00 0.00 0.00 0.00 0.00 0.00 0.00 0.00 0.00 0.00 0.00 0.00 0.00 0.00 0.00 0.00 0.00 0.00 0.00
0.01 0.04 0.09 0.08 0.06 0.02 0.01 0.00 0.01 0.02 0.04 0.06 0.08 0.04 0.00 0.00 0.00 0.00 0.00 0.00 0.00 0.00 0.00 0.00 0.00 0.00 0.00 0.00 0.00 0.00 0.00 0.00 0.00 0.00 0.00 0.00 0.00 0.00 0.00 0.00 0.00 0.00 0.00 0.00
0.01 0.03 0.06 0.09 0.07 0.02 0.01 0.00 0.00 0.01 0.02 0.03 0.04 0.02 0.00 0.00 0.00 0.00 0.00 0.00 0.00 0.00 0.00 0.00 0.00 0.00 0.00 0.00 0.00 0.00 0.00 0.00 0.00 0.00 0.00 0.00 0.00 0.00 0.00 0.00 0.00 0.00 0.00 0.00
0.01 0.02 0.02 0.02 0.01 0.01 0.01 0.01 0.00 0.00 0.01 0.02 0.02 0.01 0.00 0.00 0.00 0.00 0.00 0.00 0.00 0.00 0.00 0.00 0.00 0.00 0.00 0.00 0.00 0.00 0.00 0.00 0.00 0.00 0.00 0.00 0.00 0.00 0.00 0.00 0.00 0.00 0.00 0.00
0.01 0.02 0.01 0.01 0.00 0.01 0.01 0.01 0.00 0.00 0.00 0.00 0.01 0.00 0.00 0.00 0.00 0.00 0.00 0.00 0.00 0.00 0.00 0.00 0.00 0.00 0.00 0.00 0.00 0.00 0.00 0.00 0.00 0.00 0.00 0.00 0.00 0.00 0.00 0.00 0.00 0.00 0.00 0.00
0.00 0.01 0.01 0.01 0.00 0.01 0.01 0.00 0.00 0.00 0.00 0.00 0.00 0.00 0.00 0.00 0.00 0.00 0.00 0.00 0.00 0.00 0.00 0.00 0.00 0.00 0.00 0.00 0.00 0.00 0.00 0.00 0.00 0.00 0.00 0.00 0.00 0.00 0.00 0.00 0.00 0.00 0.00 0.00
0.00 0.01 0.01 0.01 0.01 0.01 0.01 0.00 0.00 0.00 0.00 0.00 0.00 0.00 0.00 0.00 0.00 0.00 0.00 0.00 0.00 0.00 0.00 0.00 0.00 0.00 0.00 0.00 0.00 0.00 0.00 0.00 0.00 0.00 0.00 0.00 0.00 0.00 0.00 0.00 0.00 0.00 0.00 0.00
0.01 0.01 0.01 0.01 0.01 0.01 0.01 0.01 0.01 0.00 0.00 0.00 0.00 0.00 0.00 0.00 0.00 0.00 0.00 0.00 0.00 0.00 0.00 0.00 0.00 0.00 0.00 0.00 0.00 0.00 0.00 0.00 0.00 0.00 0.00 0.00 0.00 0.00 0.00 0.00 0.00 0.00 0.00 0.00
0.01 0.01 0.01 0.01 0.01 0.01 0.00 0.00 0.00 0.00 0.00 0.00 0.00 0.00 0.00 0.00 0.00 0.00 0.00 0.00 0.00 0.00 0.00 0.00 0.00 0.00 0.00 0.00 0.00 0.00 0.00 0.00 0.00 0.00 0.00 0.00 0.00 0.00 0.00 0.00 0.00 0.00 0.00 0.00
0.01 0.01 0.01 0.02 0.01 0.01 0.00 0.00 0.00 0.00 0.00 0.00 0.00 0.00 0.00 0.00 0.00 0.00 0.00 0.00 0.00 0.00 0.00 0.00 0.00 0.00 0.00 0.00 0.00 0.00 0.00 0.00 0.00 0.00 0.00 0.00 0.00 0.00 0.00 0.00 0.00 0.00 0.00 0.00
0.01 0.01 0.01 0.01 0.02 0.01 0.00 0.00 0.00 0.00 0.00 0.00 0.00 0.00 0.00 0.00 0.00 0.00 0.00 0.00 0.00 0.00 0.00 0.00 0.00 0.00 0.00 0.00 0.00 0.00 0.00 0.00 0.00 0.00 0.00 0.00 0.00 0.00 0.00 0.00 0.00 0.00 0.00 0.00
0.01 0.00 0.00 0.00 0.01 0.00 0.00 0.00 0.00 0.00 0.00 0.00 0.00 0.00 0.00 0.00 0.00 0.00 0.00 0.00 0.00 0.00 0.00 0.00 0.00 0.00 0.00 0.00 0.00 0.00 0.00 0.00 0.00 0.00 0.00 0.00 0.00 0.00 0.00 0.00 0.00 0.00 0.00 0.00
0.00 0.00 0.00 0.00 0.00 0.00 0.00 0.00 0.00 0.00 0.00 0.00 0.00 0.00 0.00 0.00 0.00 0.00 0.00 0.00 0.00 0.00 0.00 0.00 0.00 0.00 0.00 0.00 0.00 0.00 0.00 0.00 0.00 0.00 0.00 0.00 0.00 0.00 0.00 0.00 0.00 0.00 0.00 0.00
0.00 0.00 0.00 0.00 0.00 0.00 0.00 0.00 0.00 0.00 0.00 0.00 0.00 0.00 0.00 0.00 0.00 0.00 0.00 0.00 0.00 0.00 0.00 0.00 0.00 0.00 0.00 0.00 0.00 0.00 0.00 0.00 0.00 0.00 0.00 0.00 0.00 0.00 0.00 0.00 0.00 0.00 0.00 0.00
0.00 0.00 0.00 0.00 0.00 0.00 0.00 0.00 0.00 0.00 0.00 0.00 0.00 0.00 0.00 0.00 0.00 0.00 0.00 0.00 0.00 0.00 0.00 0.00 0.00 0.00 0.00 0.00 0.00 0.00 0.00 0.00 0.00 0.00 0.00 0.00 0.00 0.00 0.00 0.00 0.00 0.00 0.00 0.00
MSLP
1012.66 1013.10 1013.36 1013.44 1013.38 1013.22 1013.02 1012.84 1012.72 1012.67 1012.69 1012.75 1012.84 1012.92 1012.97 1013.00 1012.99 1012.97 1012.93 1012.89 1012.84 1012.78 1012.71 1012.61 1012.50 1012.40 1012.31 1012.28 1012.34 1012.50 1012.78 1013.17 1013.64 1014.16 1014.68 1015.15 1015.55 1015.85 1016.05 1016.15 1016.19 1016.19 1016.18 1016.17
1013.09 1013.38 1013.49 1013.45 1013.31 1013.14 1012.99 1012.91 1012.92 1013.00 1013.14 1013.29 1013.40 1013.46 1013.45 1013.37 1013.26 1013.13 1013.01 1012.92 1012.86 1012.81 1012.77 1012.71 1012.63 1012.54 1012.45 1012.39 1012.41 1012.53 1012.78 1013.15 1013.63 1014.18 1014.74 1015.26 1015.71 1016.04 1016.26 1016.37 1016.41 1016.39 1016.36 1016.35
1013.28 1013.40 1013.36 1013.22 1013.05 1012.92 1012.88 1012.97 1013.15 1013.42 1013.69 1013.91 1014.04 1014.04 1013.92 1013.71 1013.44 1013.18 1012.96 1012.83 1012.76 1012.77 1012.80 1012.82 1012.81 1012.77 1012.69 1012.62 1012.61 1012.67 1012.87 1013.20 1013.66 1014.20 1014.77 1015.33 1015.81 1016.19 1016.44 1016.57 1016.61 1016.60 1016.57 1016.54
1013.24 1013.18 1013.02 1012.84 1012.70 1012.67 1012.80 1013.09 1013.49 1013.94 1014.34 1014.61 1014.71 1014.61 1014.32 1013.91 1013.46 1013.04 1012.71 1012.53 1012.49 1012.57 1012.71 1012.86 1012.97 1013.01 1012.99 1012.94 1012.89 1012.91 1013.04 1013.31 1013.71 1014.22 1014.79 1015.36 1015.88 1016.29 1016.58 1016.75 1016.82 1016.82 1016.79 1016.77
1013.03 1012.83 1012.60 1012.42 1012.37 1012.50 1012.85 1013.37 1013.98 1014.59 1015.08 1015.36 1015.37 1015.10 1014.60 1013.95 1013.27 1012.66 1012.23 1012.01 1012.01 1012.19 1012.48 1012.80 1013.06 1013.24 1013.30 1013.28 1013.23 1013.20 1013.26 1013.45 1013.79 1014.25 1014.80 1015.37 1015.90 1016.35 1016.68 1016.89 1017.00 1017.03 1017.02 1017.01
1012.74 1012.47 1012.22 1012.11 1012.19 1012.53 1013.09 1013.84 1014.64 1015.37 1015.89 1016.11 1015.97 1015.48 1014.72 1013.80 1012.88 1012.09 1011.54 1011.30 1011.35 1011.66 1012.12 1012.62 1013.07 1013.40 1013.57 1013.61 1013.56 1013.50 1013.50 1013.62 1013.88 1014.28 1014.78 1015.34 1015.88 1016.36 1016.73 1016.99 1017.14 1017.21 1017.23 1017.23
1012.48 1012.19 1012.00 1012.01 1012.26 1012.80 1013.57 1014.50 1015.43 1016.21 1016.70 1016.79 1016.45 1015.71 1014.67 1013.49 1012.33 1011.37 1010.74 1010.48 1010.61 1011.05 1011.68 1012.38 1013.02 1013.50 1013.80 1013.91 1013.88 1013.79 1013.73 1013.78 1013.96 1014.29 1014.75 1015.28 1015.82 1016.32 1016.72 1017.02 1017.21 1017.32 1017.38 1017.41
1012.31 1012.08 1012.00 1012.15 1012.59 1013.30 1014.24 1015.28 1016.26 1017.01 1017.40 1017.32 1016.76 1015.77 1014.47 1013.05 1011.71 1010.62 1009.93 1009.69 1009.90 1010.46 1011.26 1012.14 1012.94 1013.57 1013.97 1014.14 1014.14 1014.04 1013.94 1013.92 1014.04 1014.31 1014.71 1015.20 1015.73 1016.22 1016.65 1016.98 1017.21 1017.35 1017.45 1017.51
1012.24 1012.12 1012.18 1012.50 1013.09 1013.94 1014.96 1016.03 1016.98 1017.63 1017.87 1017.60 1016.82 1015.61 1014.11 1012.53 1011.08 1009.94 1009.24 1009.05 1009.34 1010.02 1010.94 1011.95 1012.88 1013.61 1014.09 1014.32 1014.34 1014.24 1014.11 1014.05 1014.11 1014.32 1014.67 1015.12 1015.62 1016.10 1016.53 1016.87 1017.12 1017.30 1017.43 1017.53
1012.21 1012.25 1012.46 1012.92 1013.62 1014.54 1015.57 1016.58 1017.42 1017.92 1017.98 1017.52 1016.56 1015.21 1013.61 1011.96 1010.49 1009.38 1008.73 1008.61 1008.99 1009.75 1010.76 1011.85 1012.84 1013.63 1014.16 1014.43 1014.47 1014.38 1014.24 1014.16 1014.19 1014.36 1014.66 1015.06 1015.52 1015.97 1016.38 1016.72 1016.98 1017.18 1017.34 1017.48
1012.16 1012.35 1012.71 1013.27 1014.02 1014.92 1015.88 1016.76 1017.43 1017.74 1017.61 1017.00 1015.94 1014.53 1012.94 1011.35 1009.97 1008.96 1008.43 1008.41 1008.86 1009.67 1010.72 1011.81 1012.81 1013.61 1014.15 1014.43 1014.50 1014.43 1014.32 1014.25 1014.27 1014.42 1014.69 1015.05 1015.46 1015.87 1016.24 1016.56 1016.82 1017.03 1017.21 1017.39
1012.00 1012.33 1012.79 1013.40 1014.15 1014.97 1015.78 1016.48 1016.93 1017.05 1016.76 1016.04 1014.95 1013.59 1012.10 1010.68 1009.48 1008.65 1008.27 1008.36 1008.87 1009.70 1010.72 1011.78 1012.73 1013.50 1014.02 1014.31 1014.41 1014.39 1014.32 1014.30 1014.35 1014.51 1014.77 1015.09 1015.46 1015.82 1016.14 1016.43 1016.67 1016.89 1017.09 1017.30
1011.69 1012.13 1012.65 1013.27 1013.94 1014.62 1015.25 1015.72 1015.96 1015.88 1015.46 1014.70 1013.66 1012.42 1011.13 1009.94 1008.98 1008.37 1008.16 1008.36 1008.92 1009.73 1010.69 1011.66 1012.53 1013.23 1013.73 1014.03 1014.17 1014.22 1014.24 1014.29 1014.41 1014.61 1014.87 1015.18 1015.50 1015.82 1016.10 1016.35 1016.57 1016.79 1017.01 1017.25
1011.26 1011.76 1012.30 1012.87 1013.43 1013.94 1014.35 1014.60 1014.62 1014.38 1013.87 1013.11 1012.16 1011.11 1010.06 1009.14 1008.45 1008.07 1008.03 1008.32 1008.88 1009.65 1010.51 1011.36 1012.13 1012.76 1013.23 1013.55 1013.76 1013.92 1014.05 1014.22 1014.42 1014.68 1014.98 1015.28 1015.58 1015.85 1016.09 1016.31 1016.52 1016.73 1016.98 1017.26
1010.77 1011.30 1011.81 1012.30 1012.72 1013.05 1013.25 1013.28 1013.11 1012.74 1012.17 1011.45 1010.62 1009.77 1008.98 1008.33 1007.89 1007.72 1007.81 1008.16 1008.70 1009.38 1010.12 1010.85 1011.51 1012.07 1012.52 1012.89 1013.19 1013.47 1013.74 1014.04 1014.36 1014.70 1015.05 1015.37 1015.65 1015.90 1016.11 1016.31 1016.50 1016.73 1016.99 1017.31
1010.32 1010.83 1011.29 1011.68 1011.97 1012.12 1012.12 1011.97 1011.64 1011.17 1010.58 1009.91 1009.21 1008.55 1007.98 1007.56 1007.33 1007.31 1007.49 1007.85 1008.35 1008.92 1009.54 1010.14 1010.69 1011.20 1011.66 1012.08 1012.48 1012.89 1013.32 1013.76 1014.21 1014.64 1015.04 1015.39 1015.69 1015.92 1016.12 1016.31 1016.51 1016.75 1017.04 1017.38
1009.98 1010.45 1010.84 1011.13 1011.29 1011.29 1011.14 1010.84 1010.40 1009.86 1009.27 1008.65 1008.07 1007.55 1007.16 1006.91 1006.83 1006.90 1007.11 1007.44 1007.86 1008.32 1008.81 1009.29 1009.76 1010.23 1010.70 1011.19 1011.70 1012.25 1012.82 1013.40 1013.97 1014.49 1014.96 1015.34 1015.65 1015.90 1016.10 1016.30 1016.51 1016.77 1017.09 1017.47
1009.79 1010.20 1010.52 1010.71 1010.76 1010.66 1010.40 1010.00 1009.49 1008.92 1008.34 1007.77 1007.27 1006.87 1006.59 1006.45 1006.44 1006.54 1006.74 1007.01 1007.33 1007.68 1008.04 1008.43 1008.83 1009.28 1009.77 1010.32 1010.93 1011.60 1012.29 1012.99 1013.66 1014.27 1014.79 1015.22 1015.55 1015.82 1016.04 1016.26 1016.51 1016.80 1017.15 1017.55
1009.71 1010.04 1010.29 1010.41 1010.38 1010.20 1009.88 1009.44 1008.91 1008.34 1007.78 1007.27 1006.83 1006.51 1006.29 1006.20 1006.20 1006.29 1006.44 1006.64 1006.86 1007.10 1007.37 1007.68 1008.03 1008.46 1008.98 1009.58 1010.27 1011.02 1011.81 1012.59 1013.33 1014.00 1014.57 1015.04 1015.41 1015.71 1015.97 1016.23 1016.51 1016.83 1017.21 1017.63
1009.65 1009.91 1010.08 1010.14 1010.06 1009.85 1009.51 1009.06 1008.55 1008.02 1007.51 1007.05 1006.67 1006.39 1006.21 1006.13 1006.13 1006.18 1006.28 1006.39 1006.53 1006.69 1006.89 1007.13 1007.46 1007.88 1008.41 1009.04 1009.77 1010.58 1011.41 1012.25 1013.03 1013.74 1014.35 1014.86 1015.27 1015.61 1015.92 1016.22 1016.54 1016.89 1017.29 1017.72
1009.52 1009.69 1009.79 1009.80 1009.69 1009.48 1009.15 1008.75 1008.29 1007.82 1007.38 1006.98 1006.66 1006.42 1006.27 1006.19 1006.17 1006.19 1006.24 1006.30 1006.38 1006.48 1006.63 1006.85 1007.15 1007.57 1008.10 1008.74 1009.49 1010.30 1011.16 1012.00 1012.81 1013.54 1014.17 1014.71 1015.17 1015.56 1015.91 1016.26 1016.62 1017.00 1017.41 1017.84
1009.23 1009.31 1009.35 1009.31 1009.19 1008.99 1008.72 1008.38 1008.01 1007.62 1007.26 1006.94 1006.69 1006.49 1006.37 1006.30 1006.27 1006.28 1006.30 1006.34 1006.39 1006.47 1006.61 1006.81 1007.11 1007.51 1008.04 1008.67 1009.40 1010.20 1011.04 1011.87 1012.67 1013.41 1014.06 1014.63 1015.13 1015.57 1015.98 1016.37 1016.76 1017.16 1017.58 1017.99
1008.75 1008.75 1008.72 1008.65 1008.54 1008.37 1008.15 1007.90 1007.62 1007.34 1007.07 1006.84 1006.66 1006.52 1006.43 1006.39 1006.37 1006.39 1006.41 1006.45 1006.52 1006.61 1006.75 1006.96 1007.26 1007.66 1008.16 1008.77 1009.47 1010.23 1011.03 1011.84 1012.61 1013.35 1014.02 1014.62 1015.15 1015.64 1016.09 1016.52 1016.94 1017.36 1017.76 1018.16
1008.14 1008.05 1007.97 1007.88 1007.77 1007.64 1007.49 1007.32 1007.14 1006.96 1006.79 1006.65 1006.54 1006.46 1006.42 1006.41 1006.43 1006.47 1006.52 1006.59 1006.68 1006.81 1006.97 1007.20 1007.51 1007.90 1008.38 1008.95 1009.61 1010.32 1011.08 1011.84 1012.60 1013.32 1014.00 1014.62 1015.20 1015.73 1016.22 1016.68 1017.11 1017.53 1017.92 1018.29
1007.47 1007.33 1007.20 1007.09 1006.99 1006.90 1006.81 1006.72 1006.63 1006.55 1006.46 1006.40 1006.35 1006.33 1006.33 1006.36 1006.42 1006.49 1006.59 1006.70 1006.83 1006.99 1007.19 1007.44 1007.76 1008.14 1008.60 1009.13 1009.74 1010.40 1011.10 1011.83 1012.56 1013.27 1013.95 1014.60 1015.20 1015.76 1016.27 1016.75 1017.19 1017.60 1017.97 1018.31
1006.88 1006.69 1006.54 1006.43 1006.35 1006.29 1006.25 1006.22 1006.20 1006.18 1006.16 1006.15 1006.15 1006.16 1006.20 1006.26 1006.35 1006.45 1006.58 1006.74 1006.91 1007.11 1007.34 1007.61 1007.93 1008.30 1008.73 1009.22 1009.78 1010.39 1011.04 1011.73 1012.43 1013.12 1013.81 1014.46 1015.08 1015.66 1016.19 1016.67 1017.11 1017.50 1017.85 1018.17
Thickness
5707 5699 5694 5701 5709 5710 5712 5711 5712 5723 5741 5736 5729 5729 5737 5747 5748 5746 5746 5748 5749 5753 5759 5762 5761 5760 5759 5758 5757 5755 5752 5750 5747 5744 5741 5738 5735 5735 5732 5730 5728 5727 5725 5723
5695 5690 5703 5711 5712 5711 5709 5704 5707 5718 5736 5733 5726 5726 5736 5744 5746 5748 5748 5749 5750 5752 5755 5756 5758 5757 5756 5755 5756 5755 5752 5750 5748 5745 5743 5740 5737 5735 5732 5731 5728 5726 5724 5722
5686 5697 5709 5706 5702 5702 5703 5702 5705 5707 5719 5728 5721 5715 5727 5741 5749 5750 5752 5754 5755 5755 5754 5754 5755 5755 5754 5753 5755 5755 5752 5750 5748 5746 5743 5740 5737 5735 5731 5729 5727 5726 5724 5722
5690 5701 5703 5699 5698 5700 5693 5708 5709 5708 5703 5703 5713 5695 5718 5733 5737 5744 5748 5752 5755 5758 5757 5755 5754 5753 5753 5754 5757 5756 5753 5750 5748 5745 5741 5737 5732 5729 5729 5729 5727 5726 5724 5722
5689 5698 5697 5694 5699 5702 5698 5710 5708 5707 5702 5700 5710 5701 5712 5731 5729 5739 5748 5753 5756 5759 5758 5756 5755 5754 5755 5756 5755 5754 5752 5748 5746 5744 5741 5738 5735 5733 5732 5731 5729 5727 5725 5723
5697 5707 5705 5703 5708 5708 5706 5703 5702 5703 5697 5682 5703 5703 5708 5730 5737 5743 5750 5755 5757 5759 5759 5758 5757 5755 5753 5754 5753 5751 5748 5745 5744 5743 5742 5739 5736 5734 5731 5730 5728 5726 5725 5724
5689 5698 5707 5710 5699 5702 5700 5686 5672 5670 5670 5683 5714 5709 5721 5748 5757 5756 5755 5757 5759 5759 5758 5755 5753 5751 5750 5749 5749 5748 5745 5742 5743 5742 5742 5740 5738 5736 5733 5731 5729 5727 5724 5722
5678 5680 5701 5707 5701 5694 5696 5692 5673 5663 5670 5689 5713 5710 5735 5761 5767 5768 5765 5763 5760 5758 5758 5755 5753 5751 5749 5748 5747 5746 5744 5742 5742 5742 5742 5741 5740 5737 5735 5734 5731 5729 5726 5724
5682 5683 5710 5714 5715 5708 5696 5694 5700 5685 5685 5684 5704 5724 5743 5760 5760 5762 5762 5760 5758 5758 5757 5755 5754 5752 5750 5748 5747 5746 5744 5742 5741 5741 5741 5740 5739 5737 5735 5734 5733 5731 5729 5727
5697 5685 5703 5713 5715 5712 5708 5703 5693 5682 5672 5676 5699 5713 5724 5740 5748 5755 5757 5756 5757 5758 5757 5756 5754 5753 5751 5749 5747 5747 5745 5743 5742 5742 5740 5739 5737 5736 5735 5734 5732 5731 5729 5727
5709 5691 5694 5704 5700 5699 5703 5701 5697 5691 5688 5678 5681 5706 5750 5750 5755 5755 5756 5758 5759 5757 5757 5755 5754 5753 5751 5748 5747 5745 5744 5743 5741 5741 5739 5737 5735 5735 5734 5732 5731 5730 5729 5727
5714 5698 5687 5698 5716 5721 5713 5709 5703 5684 5685 5688 5683 5703 5756 5760 5762 5761 5759 5760 5760 5759 5758 5756 5754 5752 5749 5746 5745 5744 5743 5742 5741 5740 5738 5736 5735 5734 5732 5731 5730 5730 5728 5727
5715 5699 5678 5682 5695 5710 5710 5713 5713 5708 5699 5692 5685 5703 5754 5759 5760 5763 5761 5760 5759 5757 5756 5754 5752 5749 5747 5746 5745 5743 5742 5740 5740 5739 5737 5735 5733 5733 5731 5730 5729 5728 5727 5725
5720 5704 5688 5676 5687 5703 5705 5713 5716 5709 5696 5697 5703 5712 5738 5750 5753 5757 5759 5759 5758 5756 5754 5752 5749 5748 5747 5746 5745 5743 5741 5740 5738 5736 5735 5733 5732 5731 5731 5729 5728 5727 5725 5723
5718 5703 5704 5707 5714 5715 5715 5716 5719 5713 5713 5707 5713 5722 5738 5752 5756 5758 5760 5759 5756 5754 5752 5750 5748 5747 5746 5745 5744 5743 5741 5739 5738 5734 5732 5731 5731 5730 5729 5726 5725 5724 5722 5721
5717 5709 5711 5711 5720 5722 5719 5721 5723 5723 5724 5723 5724 5731 5753 5760 5761 5759 5760 5758 5755 5753 5753 5752 5750 5748 5747 5745 5744 5742 5739 5738 5736 5733 5731 5730 5729 5727 5725 5723 5722 5720 5718 5716
5717 5710 5703 5702 5719 5718 5710 5727 5729 5729 5734 5732 5726 5739 5756 5754 5756 5758 5760 5759 5757 5756 5754 5752 5751 5750 5749 5748 5746 5743 5740 5738 5735 5732 5730 5728 5726 5724 5722 5721 5718 5715 5713 5711
5719 5714 5706 5702 5705 5691 5722 5749 5745 5737 5739 5744 5745 5752 5757 5759 5761 5765 5765 5761 5759 5759 5757 5755 5754 5752 5751 5751 5748 5745 5741 5737 5733 5730 5728 5726 5723 5721 5719 5716 5714 5712 5710 5707
5728 5715 5706 5702 5695 5705 5729 5744 5746 5736 5734 5750 5749 5753 5758 5763 5761 5760 5767 5768 5765 5764 5762 5760 5759 5756 5754 5752 5749 5745 5739 5736 5732 5729 5727 5724 5722 5718 5715 5712 5710 5709 5706 5703
5724 5720 5706 5701 5692 5691 5720 5745 5754 5741 5725 5750 5754 5753 5755 5755 5737 5745 5764 5767 5767 5766 5765 5763 5761 5758 5754 5752 5750 5743 5738 5735 5732 5730 5727 5724 5721 5717 5713 5711 5708 5706 5704 5701
5704 5704 5699 5695 5694 5707 5731 5744 5744 5715 5719 5748 5753 5753 5753 5748 5748 5756 5764 5764 5764 5764 5763 5763 5760 5756 5754 5752 5748 5741 5737 5734 5733 5730 5726 5722 5718 5715 5711 5708 5706 5703 5700 5696
5707 5701 5700 5700 5692 5699 5732 5736 5727 5726 5744 5748 5750 5751 5751 5751 5755 5757 5758 5757 5758 5758 5758 5758 5755 5752 5752 5750 5745 5739 5735 5735 5732 5727 5722 5718 5715 5712 5709 5704 5701 5699 5695 5691
5716 5716 5713 5712 5708 5723 5734 5732 5735 5740 5739 5743 5745 5747 5749 5748 5749 5751 5752 5752 5753 5753 5752 5752 5750 5747 5746 5746 5742 5736 5734 5732 5727 5721 5716 5713 5710 5707 5704 5700 5696 5693 5690 5686
5721 5728 5718 5714 5718 5725 5729 5732 5735 5737 5736 5740 5743 5744 5744 5743 5744 5745 5746 5746 5746 5747 5746 5746 5743 5739 5738 5738 5737 5734 5732 5728 5722 5716 5711 5708 5705 5701 5699 5695 5692 5688 5685 5681
5712 5716 5712 5708 5715 5719 5722 5726 5729 5732 5734 5735 5737 5739 5739 5739 5739 5741 5741 5740 5741 5741 5740 5739 5736 5733 5732 5732 5730 5729 5727 5723 5716 5711 5707 5703 5701 5697 5693 5690 5687 5684 5682 5679
5709 5706 5701 5699 5711 5711 5712 5720 5723 5723 5724 5727 5728 5730 5733 5734 5734 5735 5735 5735 5735 5734 5733 5731 5729 5727 5727 5726 5724 5723 5722 5718 5712 5706 5702 5699 5695 5692 5688 5684 5680 5679 5677 5674